Total_Precipitation_Accumulation
0.12 0.20 0.23 0.29 0.24 0.17 0.15 0.16 0.25 0.32 0.49 0.63 0.60 0.71 0.99 0.85 0.74 0.66 0.65 0.55 0.52 0.60 0.74 0.81 0.83 0.81 0.90 1.05 1.18 1.30 1.42 1.56 1.81 2.08 1.94 1.70 1.66 1.64 1.59 1.68 1.80 2.09 2.21 2.28
0.12 0.17 0.21 0.25 0.26 0.20 0.18 0.17 0.16 0.26 0.47 0.56 0.65 0.68 0.78 0.79 0.81 0.79 0.73 0.71 0.71 0.85 0.87 0.89 0.93 0.88 0.86 0.88 0.98 1.17 1.32 1.45 1.63 1.76 1.63 1.47 1.37 1.39 1.43 1.52 1.70 1.87 2.01 2.12
0.22 0.20 0.22 0.28 0.26 0.23 0.21 0.27 0.27 0.35 0.47 0.53 0.73 0.69 0.70 0.85 0.92 0.85 0.71 0.76 0.80 0.84 0.94 0.88 0.86 0.86 0.85 0.87 1.02 1.24 1.30 1.34 1.48 1.60 1.61 1.51 1.34 1.34 1.41 1.51 1.65 1.74 1.78 1.84
0.36 0.39 0.46 0.36 0.33 0.30 0.29 0.34 0.36 0.39 0.45 0.55 0.74 0.72 0.60 0.63 0.69 0.77 0.81 0.88 0.85 0.84 0.88 0.82 0.78 0.85 0.86 0.85 1.06 1.25 1.31 1.40 1.58 1.75 1.76 1.69 1.62 1.58 1.66 1.74 1.72 1.71 1.75 1.80
0.56 0.57 0.49 0.48 0.48 0.49 0.53 0.69 0.63 0.54 0.52 0.57 0.58 0.67 0.73 0.63 0.57 0.65 0.73 0.91 0.94 0.87 0.92 0.96 1.00 1.04 1.03 1.02 1.20 1.42 1.52 1.57 1.65 1.80 1.86 1.87 1.96 2.01 2.07 2.06 1.93 1.88 1.95 1.98
0.65 0.74 0.74 0.71 0.61 0.56 0.70 1.13 1.02 0.78 0.66 0.63 0.64 0.96 1.11 0.90 0.74 0.72 0.72 0.86 1.02 1.00 0.88 0.94 1.01 1.11 1.28 1.34 1.39 1.46 1.61 1.76 1.80 1.96 2.08 2.07 2.17 2.31 2.42 2.45 2.35 2.37 2.26 2.10
0.75 0.84 0.89 0.83 0.63 0.65 1.20 1.56 1.19 0.99 0.90 0.83 0.91 0.95 1.02 0.89 0.80 0.80 0.75 0.80 0.92 1.11 0.97 0.95 1.06 1.22 1.43 1.54 1.67 1.70 1.76 1.83 1.91 2.11 2.29 2.44 2.62 2.76 2.76 2.72 2.74 2.66 2.40 2.26
0.94 1.15 1.22 0.82 0.79 1.08 1.36 1.20 1.19 1.22 1.28 1.23 1.07 0.87 0.86 0.90 0.79 0.77 0.75 0.76 0.77 0.84 0.92 0.96 1.07 1.36 1.54 1.57 1.61 1.76 1.88 2.00 2.16 2.27 2.33 2.45 2.77 2.87 2.86 2.80 2.67 2.49 2.33 2.13
1.15 1.32 1.11 0.88 0.98 1.02 1.14 1.24 1.27 1.31 1.34 1.23 1.06 0.93 0.93 0.94 0.84 0.76 0.72 0.75 0.80 0.82 0.93 1.05 1.20 1.45 1.75 1.81 1.75 1.75 1.89 2.08 2.26 2.40 2.58 2.76 2.88 2.81 2.71 2.65 2.55 2.39 2.25 2.05
1.31 1.32 1.07 1.03 1.06 1.03 1.09 1.15 1.25 1.19 1.13 1.12 1.07 0.95 0.93 0.88 0.75 0.71 0.73 0.76 0.80 0.87 0.97 1.12 1.32 1.50 1.77 1.74 1.69 1.73 1.75 1.90 2.06 2.14 2.21 2.34 2.52 2.45 2.31 2.28 2.31 2.27 2.22 2.12
1.50 1.50 1.40 1.34 1.32 1.22 1.08 1.03 0.99 1.01 1.00 1.05 1.09 1.06 0.91 0.88 0.79 0.69 0.68 0.73 0.79 0.94 1.14 1.24 1.35 1.46 1.50 1.50 1.55 1.59 1.58 1.66 1.72 1.75 1.84 1.95 2.03 2.10 2.05 2.03 1.98 1.98 1.96 1.94
1.73 1.57 1.50 1.67 1.53 1.38 1.16 1.06 0.99 0.95 0.97 1.02 1.06 1.12 0.95 0.86 0.84 0.75 0.69 0.72 0.87 1.00 1.13 1.26 1.46 1.65 1.67 1.61 1.66 1.70 1.63 1.59 1.57 1.60 1.65 1.66 1.74 1.75 1.74 1.62 1.51 1.41 1.35 1.32
1.45 1.39 1.38 1.43 1.37 1.29 1.20 1.20 1.24 1.18 1.09 1.03 1.04 1.03 0.93 0.85 0.85 0.78 0.77 0.80 0.90 0.94 1.01 1.18 1.35 1.50 1.64 1.77 1.83 1.85 1.75 1.64 1.57 1.50 1.48 1.50 1.55 1.62 1.63 1.50 1.31 1.16 1.06 0.99
1.46 1.40 1.44 1.39 1.34 1.24 1.18 1.23 1.28 1.20 1.17 1.11 1.09 1.01 0.92 0.87 0.87 0.88 0.83 0.88 0.98 1.01 1.05 1.18 1.30 1.38 1.47 1.70 1.86 1.91 1.86 1.75 1.59 1.48 1.42 1.42 1.45 1.49 1.56 1.62 1.51 1.32 1.10 0.90
1.73 1.60 1.50 1.47 1.46 1.39 1.21 1.17 1.19 1.13 1.06 1.08 1.07 1.04 0.97 0.94 0.91 0.92 0.89 0.88 0.97 1.07 1.12 1.22 1.29 1.33 1.44 1.57 1.63 1.66 1.64 1.57 1.47 1.41 1.41 1.39 1.41 1.41 1.39 1.44 1.43 1.38 1.23 1.05
1.69 1.57 1.41 1.39 1.45 1.45 1.34 1.23 1.19 1.16 1.08 0.99 0.99 0.95 0.95 0.97 0.95 0.94 0.92 0.93 1.03 1.09 1.10 1.21 1.30 1.31 1.41 1.56 1.60 1.61 1.61 1.57 1.44 1.39 1.43 1.43 1.41 1.41 1.38 1.43 1.43 1.41 1.30 1.12
1.60 1.56 1.40 1.23 1.23 1.27 1.25 1.17 1.09 1.08 1.06 1.01 0.97 0.94 0.90 0.92 1.01 1.03 0.98 0.93 1.00 1.11 1.15 1.29 1.35 1.33 1.42 1.55 1.67 1.63 1.57 1.52 1.40 1.34 1.35 1.42 1.43 1.40 1.34 1.35 1.34 1.37 1.27 1.07
1.34 1.34 1.28 1.18 1.10 1.09 1.15 1.12 1.07 1.06 1.09 1.02 0.96 0.98 1.02 1.07 1.17 1.24 1.21 1.16 1.16 1.16 1.15 1.24 1.30 1.34 1.40 1.48 1.56 1.58 1.56 1.49 1.34 1.18 1.16 1.22 1.27 1.29 1.28 1.25 1.25 1.28 1.20 1.00
1.16 1.26 1.23 1.16 1.13 1.05 1.14 1.14 1.12 1.11 1.05 0.99 0.96 0.98 1.03 1.15 1.27 1.34 1.41 1.43 1.41 1.33 1.24 1.19 1.30 1.29 1.38 1.47 1.50 1.53 1.48 1.38 1.24 1.06 1.02 1.11 1.17 1.24 1.24 1.18 1.18 1.17 1.07 0.94
1.22 1.25 1.20 1.13 1.16 1.19 1.21 1.18 1.16 1.17 1.06 0.98 1.01 1.07 1.14 1.20 1.31 1.39 1.41 1.37 1.32 1.30 1.23 1.14 1.11 1.12 1.20 1.30 1.39 1.40 1.35 1.31 1.25 1.06 1.02 1.15 1.24 1.31 1.25 1.13 1.09 1.06 0.97 0.95
1.20 1.20 1.13 1.03 1.00 1.00 1.01 1.03 1.05 1.11 1.14 1.13 1.24 1.35 1.39 1.32 1.35 1.49 1.60 1.48 1.23 1.20 1.16 1.11 1.02 1.04 1.06 1.18 1.26 1.29 1.28 1.28 1.31 1.19 1.09 1.14 1.19 1.22 1.18 1.09 1.04 0.98 0.93 0.95
1.13 1.14 1.13 1.07 1.01 0.92 0.83 0.84 0.95 1.06 1.15 1.24 1.29 1.41 1.49 1.50 1.53 1.54 1.46 1.45 1.31 1.29 1.19 1.05 0.95 0.94 0.95 0.99 1.09 1.17 1.19 1.22 1.29 1.25 1.19 1.21 1.26 1.26 1.23 1.15 1.09 1.01 0.95 0.93
1.07 1.10 1.08 1.04 1.08 1.01 0.90 0.89 0.88 0.96 1.04 1.11 1.18 1.37 1.49 1.50 1.58 1.77 1.59 1.25 1.15 1.21 1.16 1.06 1.00 0.95 0.89 0.82 0.93 1.04 1.07 1.13 1.14 1.11 1.08 1.06 1.06 1.08 1.06 0.99 0.94 0.92 0.93 0.92
1.08 1.04 1.08 1.08 1.09 1.00 0.93 0.92 0.95 0.99 0.96 0.98 1.06 1.24 1.44 1.57 1.52 1.45 1.47 1.36 1.17 1.08 1.00 1.00 0.96 0.95 0.94 0.85 0.89 0.96 1.02 1.07 1.03 0.98 0.96 0.95 0.96 0.97 0.93 0.91 0.89 0.88 0.88 0.89
1.09 1.03 1.02 1.07 1.14 1.12 1.04 1.03 1.09 1.09 1.04 1.06 1.06 1.09 1.18 1.36 1.50 1.36 1.19 1.13 1.06 0.94 0.89 0.90 0.86 0.85 0.84 0.82 0.81 0.88 0.97 1.03 1.02 0.95 0.88 0.90 0.92 0.89 0.82 0.78 0.80 0.84 0.87 0.87
1.13 1.10 1.08 1.08 1.09 1.09 1.09 1.18 1.31 1.26 1.26 1.32 1.23 1.16 1.16 1.18 1.25 1.29 1.19 1.07 0.98 0.89 0.80 0.83 0.82 0.81 0.81 0.86 0.83 0.83 0.89 0.98 1.03 1.00 0.91 0.91 0.86 0.81 0.80 0.78 0.73 0.73 0.77 0.78
1.19 1.11 1.09 1.12 1.12 1.10 1.18 1.30 1.42 1.43 1.49 1.57 1.51 1.33 1.23 1.13 1.15 1.20 1.19 1.14 1.03 0.92 0.86 0.83 0.80 0.80 0.82 0.81 0.75 0.73 0.79 0.88 0.91 0.92 0.95 0.97 0.96 0.91 0.85 0.80 0.73 0.68 0.69 0.68